Track GLOBALSTAR M078 now! 10-day predictions GLOBALSTAR M078 is classified as:
1 39076U 13005E 21025.76647774 -.00000111 00000-0 -41832-4 0 9999 2 39076 51.9862 158.0199 0000729 165.1509 194.9379 12.62266674367613